This is the latest recevied weather packets stored in our database for station/object SQ5DN-4. If no packets are shown the sender has not sent any weather packets the latest 10 day(s).
| Time | Temp. | Humidity | Pressure | Rain* | Wind** | Luminosity | Snow |
|---|---|---|---|---|---|---|---|
| 1777989156 | 27.22° C | 30% | 1003 hPa | - | - | - | - |
| 1777988596 | 26.67° C | 30% | 1003 hPa | - | - | - | - |
| 1777988032 | 26.67° C | 30% | 1003 hPa | - | - | - | - |
| 1777987436 | 26.67° C | 30% | 1003 hPa | - | - | - | - |
| 1777986942 | 26.67° C | 31% | 1003 hPa | - | - | - | - |
| 1777986392 | 26.67° C | 31% | 1003 hPa | - | - | - | - |
| 1777985893 | 27.22° C | 30% | 1003 hPa | - | - | - | - |
| 1777985296 | 27.78° C | 30% | 1003 hPa | - | - | - | - |
| 1777984722 | 28.33° C | 28% | 1003 hPa | - | - | - | - |
| 1777984162 | 27.78° C | 31% | 1003 hPa | - | - | - | - |
| 1777983682 | 27.78° C | 31% | 1003 hPa | - | - | - | - |
| 1777983112 | 27.22° C | 32% | 1004 hPa | - | - | - | - |
| 1777982552 | 27.78° C | 31% | 1004 hPa | - | - | - | - |
| 1777982067 | 27.78° C | 30% | 1004 hPa | - | - | - | - |
| 1777981582 | 27.78° C | 33% | 1004 hPa | - | - | - | - |
| 1777980996 | 26.67° C | 33% | 1004 hPa | - | - | - | - |
| 1777980396 | 27.78° C | 34% | 1004 hPa | - | - | - | - |
| 1777979796 | 26.67° C | 35% | 1004 hPa | - | - | - | - |
| 1777979207 | 27.78° C | 34% | 1004 hPa | - | - | - | - |
| 1777978707 | 27.22° C | 36% | 1005 hPa | - | - | - | - |
| 1777978162 | 27.78° C | 36% | 1005 hPa | - | - | - | - |
| 1777977662 | 27.78° C | 36% | 1005 hPa | - | - | - | - |
| 1777977152 | 27.22° C | 36% | 1005 hPa | - | - | - | - |
| 1777976622 | 27.78° C | 37% | 1005 hPa | - | - | - | - |
| 1777976042 | 27.78° C | 38% | 1005 hPa | - | - | - | - |
* Rain since midnight (hover to see other rain measurements)
** Current wind speed in m/s (hover to see current wind gust speed)